Regional Weather Roundup
Issued by NWS Grand Forks, ND

Home | Current Version | Previous Version | Graphics & Text | Print | Product List | Glossary On
Versions: 1 2 3 4 5 6 7 8 9 10 11 12 13 14 15 16 17 18 19 20 21 22 23 24 25 26 27 28 29 30 31 32 33 34 35 36 37 38 39 40 41 42 43 44 45 46 47 48 49 50
051
ASUS43 KFGF 271510
RWRFGF
PRAIRIE TO PINES  WEATHER ROUNDUP
NATIONAL WEATHER SERVICE EASTERN NORTH DAKOTA/GRAND FORKS ND
900 AM CST MON FEB 27 2017

 **SATELLITE DATA USED TO AUGMENT SKY COVER AT AUTOMATED STATIONS**
 *****  WEATHER ACROSS EASTERN NORTH DAKOTA  *****

CITY           SKY/WX    TMP DP  RH WIND       PRES   REMARKS
GRAND FORKS    CLOUDY    16   9  74 S3        29.89F
GRAND FRKS AFB FAIR      17  10  75 CALM      29.89S
DEVILS LAKE    FLURRIES  13  10  88 W5        29.84S WCI   5
FARGO          FAIR      22  15  75 SE7       29.89F WCI  13
WAHPETON ARPT  FAIR      19  14  79 E6        29.90F WCI  11
$$

 ***** WEATHER ACROSS CENTRAL AND WESTERN NORTH DAKOTA  *****

CITY           SKY/WX    TMP DP  RH WIND       PRES   REMARKS
BISMARCK       FAIR      14  11  87 NE9       29.79F WCI   2
MINOT          LGT SNOW  14   9  80 NW12      29.84R WCI   0
JAMESTOWN      FAIR      20  17  88 SE8       29.82F WCI  10
MINOT AFB      FLURRIES  11   6  79 N14       29.84R WCI  -5
GARRISON         N/A     14  11  87 NE6       29.81R WCI   5
WILLISTON      LGT SNOW  11   7  84 NE10      29.83R FOG     WCI  -3
DICKINSON      CLOUDY    19  15  84 E9        29.70R WCI   8
HETTINGER      CLOUDY    18  16  92 E9        29.70R WCI   7
$$

 *****  OTHER AIRPORT OBSERVATIONS IN OUR AREA  *****

CITY           SKY/WX    TMP DP  RH WIND       PRES   REMARKS
WALHALLA       NOT AVBL
GRAFTON AIRPOR FAIR      14  10  85 S8        29.91R WCI   3
VALLEY CITY AR FAIR      21  21 100 SE6       29.87R WCI  14
CANDO          NOT AVBL
CAVALIER APRT    N/A     16  12  86 SW5       29.87S WCI   9
GWINNER        FAIR      23  21  93 E8        29.86F WCI  14
SHEYENNE NWR     N/A     21  13  71 E7        29.95S WCI  12
ROLLA          FAIR      10   7  85 NW17      29.81S WCI  -7
 ***** THE ABOVE OBSERVATIONS ARE NON NWS ARE NOT QUALITY
       CONTROLLED AND MAY MIS-REPORT RAIN FOR SNOW...
$$

  *****  WEATHER ACROSS NORTHERN MINNESOTA  *****

CITY           SKY/WX    TMP DP  RH WIND       PRES   REMARKS
FLAG ISLAND    FAIR      12   7  79 S6        29.87S WCI   3
WARROAD        FAIR      14   9  79 SW8       29.88S WCI   3
ROSEAU         FAIR      14   9  79 S10       29.87F WCI   1
HALLOCK        FAIR      14  10  85 S9        29.88S WCI   2
THF RVR FALLS  FAIR      12  10  92 S5        29.91R WCI   4
BAUDETTE       FAIR      10   6  84 S8        29.89R WCI  -2
WASKISH        FAIR      14  10  85 CALM      29.91R
CROOKSTON      FAIR      18  16  93 S5        29.91F WCI  11
GREENBUSH NDAW   N/A     16  10  79 S10         N/A  WCI   3
$$
  *****  WEATHER ACROSS CENTRAL AND WEST MINNESOTA  *****

CITY           SKY/WX    TMP DP  RH WIND       PRES   REMARKS
FOSSTON        FAIR      14   9  79 S5        29.90S WCI   6
BEMIDJI        FAIR      13   8  81 SE3       29.89S
PARK RAPIDS    FAIR      19  10  68 SE5       29.89S WCI  12
ELBOW LAKE     FAIR      19  17  88 SE8       29.89S WCI   9
WADENA         FAIR      18  10  73 E6        29.89S WCI   9
DETROIT LAKES  FAIR      21  16  79 SE6       29.89F WCI  14
MOORHEAD       FAIR      21  14  73 E5        29.90F WCI  15
FERGUS FALLS   FAIR      19  14  79 E6        29.94S WCI  11
MORRIS MN      FAIR      25  21  86 E7        29.88S WCI  17
STAPLES        FAIR      18  10  73 E3        29.90F
$$
  *****  WEATHER ELSEWHERE ACROSS MINNESOTA  *****

CITY           SKY/WX    TMP DP  RH WIND       PRES   REMARKS
DULUTH         LGT SNOW  20  14  77 SE5       29.93R WCI  13
INTRNTL FALLS  FAIR       9   4  80 CALM      29.92R
ELY            CLOUDY     3  -2  78 CALM      29.94R
CLOQUET        LGT SNOW  18  12  79 CALM      29.93F
WHEATON        FAIR      21  18  86 E7        29.90F WCI  13
BRAINERD       FAIR      23  15  71 NE3       29.92S
HIBBING        CLOUDY    10   4  76 CALM      29.94R
ALEXANDRIA     FAIR      23  19  85 SE8       29.89S WCI  14
SAINT CLOUD    FAIR      27  23  85 SE8       29.92S WCI  19
MINNEAPOLIS    FAIR      33  20  58 SW13      29.97R WCI  24
$$

  *****  WEATHER ACROSS SOUTH DAKOTA  *****

CITY           SKY/WX    TMP DP  RH WIND       PRES   REMARKS
SIOUX FALLS    FAIR      28  21  75 S7        29.91R WCI  21
BROOKINGS      FAIR      25  19  78 S7        29.87S WCI  17
WATERTOWN      CLOUDY    25  20  81 S12       29.85R WCI  14
HURON          FAIR      24  19  81 S8        29.85S WCI  15
SISSETON         N/A     22  20  92 CALM      29.87S
ABERDEEN       CLOUDY    24  20  84 E8        29.83S WCI  15
MITCHELL       FAIR      25  18  74 SE8       29.88R WCI  16
PIERRE         FAIR      25  17  72 SE13      29.73F WCI  14
MOBRIDGE       FAIR      25  19  78 E13       29.73S WCI  14
RAPID CITY     FAIR      21  14  74 CALM      29.63S
$$

  *****  SOME WEATHER IN NEARBY STATES *****

CITY           SKY/WX    TMP DP  RH WIND       PRES   REMARKS
GLASGOW MT     CLOUDY    13   8  81 NE8       29.77R HAZE    WCI   2
GREAT FALLS MT MOCLDY     8   5  87 E5        29.61F WCI   0
CHEYENNE WY    FAIR      20   6  55 SW10      29.63R WCI   9
SCOTTSBLUFF NE FAIR      14   6  70 E8        29.69S WCI   3
OMAHA NE       FAIR      32  25  75 S6        29.98S
DES MOINES IA  FAIR      33  29  85 S8        30.04R
DAVENPORT IA   FAIR      37  33  85 S9        30.10S
CHICAGO IL     FAIR      40  30  67 SW3       30.15S
EAU CLAIRE WI  FAIR      26  20  77 S5        30.01R WCI  20
LA CROSSE WI   FAIR      31  24  75 S9        30.07R WCI  23
$$

  *****  SOME NATIONAL WEATHER *****

CITY           SKY/WX    TMP DP  RH WIND       PRES   REMARKS
LA GUARDIA NY  PTSUNNY   46  23  40 SW10      30.43R
RALEIGH NC     FAIR      55  22  27 CALM      30.44S
ATLANTA GA     PTSUNNY   52  31  44 SE13G20   30.26F
NEW ORLEANS LA PTSUNNY   72  67  84 S12       30.11R
OKLAHOMA CITY  CLOUDY    52  48  86 SE14      29.93R
ALBUQUERQUE NM FAIR      34  24  67 SE6       29.95R
SALT LAKE CITY LGT SNOW  30  28  92 N13       29.66R VSB 1   WCI  20
LOS ANGELES CA CLOUDY    51  44  77 CALM      29.89R
BOISE ID       CLOUDY    29  26  89 CALM      29.70R
SEATTLE WA     LGT RAIN  36  34  92 SE9       29.74F
$$

*** WEATHER ACROSS MANITOBA...SASKATCHEWAN AND ONTARIO ***
                ***ONTARIO***

CITY           SKY/WX    TMP DP  RH WIND       PRES   REMARKS
GERALDTON      MOSUNNY   10   0  61 SW9       29.94F WCI  -2
THUNDER BAY    CLOUDY    10   5  79 SW3       30.03R
SIOUX LOOKOUT  PTSUNNY    9   3  78 S9        29.86R WCI  -5
TORONTO        MOSUNNY   41  27  56 SW18      30.18R
BIG TROUT LK   SUNNY     -9 -15  77 VRB2      29.83S
PICKLE LAKE    FLURRIES   5   0  78 SW9       29.80F WCI  -9
DRYDEN         SUNNY     10   5  79 S7        29.85R WCI   0
KENORA         MOSUNNY    9   5  85 S8        29.84S WCI  -4
$$
                *** MANITOBA***

CITY           SKY/WX    TMP DP  RH WIND       PRES   REMARKS
BRANDON        CLOUDY     3  -2  78 W5        29.86R WCI  -6
DAUPHIN        CLOUDY     5   0  78 CALM      29.90R
ISLAND LAKE    NOT AVBL
PILOT MOUND      N/A     10   7  85 W8          N/A  WCI  -1
THE PAS        LGT SNOW  -8 -13  77 SE2       29.86R
THOMPSON       PTSUNNY  -24 -31  69 W5        29.85R WCI -38
WINNIPEG       PTSUNNY   12   7  79 SW12      29.86R WCI  -2
LYNN LAKE      CLEAR    -27 -33  75 NW6       29.80R WCI -44
CHURCHILL      CRYSTALS -27 -33  75 W12       29.80S WCI -51
GILLAM         PTSUNNY  -24 -29  76 W3        29.83S
$$
                ***SASKATCHEWAN***

CITY           SKY/WX    TMP DP  RH WIND       PRES   REMARKS
ESTEVAN        CLOUDY     1  -2  85 NW7       29.84R WCI -11
KINDERSLEY     PTCLDY     0  -4  85 S7        29.74F WCI -13
LLOYDMINSTER   PTCLDY     0  -6  78 SW12      29.66F WCI -18
PRINCE ALBERT  PTCLDY    -6  -9  84 SW7       29.81F WCI -20
REGINA         MOSUNNY    1  -2  85 NW6       29.84R WCI -10
YORKTON        SUNNY     -2  -6  84 W8        29.84R WCI -17
N. BATTLEFORD  CLEAR      0  -6  78 S8        29.78S WCI -15
LA RONGE       MOCLDY   -13 -18  77 SE3       29.79S
SASKATOON      PTCLDY    -4  -8  84 S5        29.84S WCI -15
SWIFT CURRENT  CLEAR     -4  -6  92 S7        29.73S WCI -18
$$
NOTE: THESE ARE AUTOMATED STATIONS WITH LIMITED QUALITY CONTROL
      "FAIR" INDICATES FEW OR NO CLOUDS BELOW 12,000 FEET WITH NO
      SIGNIFICANT WEATHER AND/OR OBSTRUCTIONS TO VISIBILITY.
      SKY/WX - SKY CONDITION AND SIGNIFICANT WEATHER.
      TMP - AIR TEMPERATURE.    DP   - DEWPOINT TEMPERATURE.
      RH  - RELATIVE HUMIDITY.  PRES - PRESSURE.
      HX  - HEAT INDEX.         WCI  - WIND CHILL INDEX.
$




USA.gov is the U.S. government's official web portal to all federal, state and local government web resources and services.